User: anonymous   Login
Location: Caltech
(34.1382°N, 118.1253°W)
Time: 17:10:45
(UTC-07:00)
Language:

HO-68 - Orbit

View from above orbital plane
View from above orbital plane
View from above satellite
View from above satellite

Ground track
Ground track

The orbit data is extracted from the following two-line orbital elements,

1 36122U 09072B   16270.67768109 -.00000025  00000-0  46324-4 0  9993
2 36122 100.1338 302.3855 0008143 120.7578 239.4338 13.16335947325963
Epoch (UTC): 26 September 2016 16:15:51
Eccentricity: 0.0008143
inclination: 100.1338°
perigee height: 1192 km
apogee height: 1205 km
right ascension of ascending node: 302.3855°
argument of perigee: 120.7578°
revolutions per day: 13.16335947
mean anomaly at epoch: 239.4338°
orbit number at epoch: 32596

The dashed part of the orbit path shows where the satellite is in the earth's shadow,  

DLR